Wind_Speed
14 15 11 11 12 12 9 7 6 7 8 10 12 13 14 15 16 17 17 16 15 14 13 11 11 13 14 15 16 16 16 15 14 13 12 10 11 10 9 9 13 9 9
11 11 10 10 8 4 2 3 3 6 9 13 14 16 17 19 18 16 17 16 15 14 13 14 14 13 14 15 15 16 16 16 16 14 14 14 12 12 13 13 15 18 19
11 10 9 8 3 2 2 3 6 9 12 16 19 21 21 22 18 17 17 16 16 14 14 14 14 14 14 15 15 17 17 17 17 19 18 17 16 18 20 19 23 22 22
12 10 10 6 4 3 5 7 10 12 14 18 22 25 27 25 20 19 17 18 17 18 17 17 18 18 15 15 16 16 17 18 18 19 20 22 22 27 25 27 28 26 27
15 12 10 8 5 5 6 7 9 12 15 19 23 24 27 26 23 20 19 20 21 21 22 20 20 19 18 17 17 16 17 19 19 20 21 22 24 26 28 28 29 29 29
17 14 11 8 7 8 9 10 12 13 16 20 23 25 25 23 23 21 21 21 22 22 23 23 22 20 18 18 18 19 20 18 18 19 21 22 24 26 26 29 30 32 34
19 15 11 11 11 10 11 12 13 14 17 21 25 28 25 22 22 22 22 22 23 23 23 25 25 24 23 22 20 20 19 20 20 19 19 22 22 25 26 28 30 32 32
21 17 16 16 13 13 13 14 15 14 18 22 26 28 25 22 22 22 22 23 24 24 25 23 23 25 24 23 23 23 23 23 23 25 24 22 25 26 29 30 30 31 32
23 21 21 19 15 14 14 15 15 16 20 25 27 27 24 23 22 22 22 22 24 25 26 25 25 28 31 33 35 34 32 31 31 29 28 26 25 27 29 32 31 33 33
26 24 22 19 17 16 15 15 13 15 21 28 29 25 22 23 23 23 22 20 19 19 23 24 27 29 30 29 30 31 32 31 28 27 26 24 24 24 23 26 27 29 30
29 26 24 20 20 17 17 15 15 15 20 27 29 24 22 22 24 20 15 17 19 21 22 24 24 24 24 26 28 28 28 27 22 19 17 18 16 17 17 18 19 21 23
30 28 24 22 19 16 16 16 18 20 21 27 27 23 21 21 19 19 20 21 21 20 21 22 24 25 26 26 25 26 26 22 18 17 20 19 20 20 20 19 19 21 22
29 26 23 18 14 19 25 22 24 24 22 26 24 23 21 20 19 20 23 24 23 24 25 25 25 25 22 20 21 24 22 19 21 21 22 21 20 22 23 22 21 21 21
21 18 11 6 19 31 30 24 19 24 24 25 22 22 21 20 21 23 23 22 24 26 27 24 19 17 18 20 22 22 23 22 25 29 30 29 31 33 31 30 30 28 29
15 15 13 13 17 28 23 23 23 26 26 23 20 18 17 16 19 19 20 22 23 23 22 21 18 19 22 23 27 25 21 22 32 36 37 40 42 42 41 39 34 35 36
13 18 17 20 23 26 27 21 20 23 22 18 16 14 13 13 15 18 18 18 16 17 23 25 24 27 30 33 34 34 31 36 40 44 44 42 36 34 35 35 38 39 41
2 11 15 16 22 20 18 17 18 20 16 13 9 12 11 12 15 17 17 16 21 25 31 35 34 36 39 40 35 36 38 38 40 38 36 35 38 43 43 41 42 43 41
16 13 28 22 19 16 16 16 17 12 12 9 10 11 9 14 17 20 21 21 23 26 33 37 38 42 44 39 38 36 37 39 36 35 37 38 41 46 47 48 47 47 47
11 17 19 21 18 17 13 13 13 12 10 9 11 11 9 15 20 21 23 26 28 32 37 39 40 43 36 35 32 34 39 36 35 37 42 45 46 38 37 36 35 33 31
15 18 21 17 13 8 13 11 10 10 9 12 12 10 14 20 21 22 25 25 30 35 39 41 40 35 29 33 36 38 33 34 35 41 45 41 32 33 31 30 31 32 28
17 18 14 11 10 9 12 10 8 6 8 9 5 9 14 18 21 23 22 29 34 37 41 39 35 32 28 31 32 30 30 32 38 41 38 29 30 28 27 24 21 16 13
17 19 14 11 9 9 10 8 4 4 5 3 6 8 12 16 20 21 28 33 32 36 37 34 33 32 32 29 30 29 33 33 37 37 25 28 27 24 21 19 17 13 7
17 14 12 10 7 9 10 5 4 2 3 3 6 10 11 16 22 29 28 29 33 34 32 32 30 30 31 30 27 31 29 35 33 22 25 27 23 19 17 17 17 12 8
15 11 11 8 10 12 7 4 3 1 2 4 8 9 12 20 25 24 28 31 31 31 30 31 29 31 30 25 22 28 29 28 23 24 24 25 23 17 17 17 17 16 12
14 13 11 12 11 7 6 4 2 2 4 3 6 12 15 21 22 27 30 30 31 30 29 29 36 29 26 17 23 22 24 23 25 25 24 26 28 27 22 19 17 15 12
13 11 9 10 10 9 7 5 2 4 2 5 9 14 21 18 21 25 28 31 29 28 28 29 40 32 19 14 18 16 18 22 23 27 30 32 30 30 30 26 22 19 17
Wind_Direction
276 284 273 274 282 291 309 323 336 347 354 342 341 341 339 331 328 326 324 319 319 321 320 317 307 301 295 292 295 294 291 289 287 286 281 271 279 285 265 253 237 227 235
265 260 281 287 291 312 333 11 6 12 358 351 346 342 337 330 323 321 316 318 316 321 324 315 315 313 306 304 303 299 296 291 285 273 266 268 259 262 262 257 249 249 261
247 269 293 297 309 329 342 347 345 351 351 344 344 342 337 334 333 317 317 313 318 324 319 317 313 309 309 306 299 292 290 288 285 283 275 257 257 248 246 254 258 256 256
250 272 289 287 279 308 333 344 341 339 337 339 338 335 337 330 323 317 315 316 322 327 329 325 320 314 312 306 298 289 286 283 280 274 269 269 264 257 254 249 246 253 253
249 262 274 266 270 294 312 319 325 326 330 332 331 333 330 324 318 317 321 321 325 327 323 319 314 314 317 306 299 295 291 286 282 278 273 267 264 261 261 260 253 252 255
242 245 246 236 246 273 298 314 320 323 321 320 324 326 327 320 315 317 318 317 318 317 311 308 306 308 308 305 304 300 298 292 286 281 279 275 271 269 264 261 259 252 247
235 238 240 234 253 275 289 304 308 309 312 319 324 326 325 319 314 314 315 314 310 311 310 310 308 308 312 316 322 318 306 299 296 289 281 279 275 271 267 263 262 263 260
235 229 227 236 251 269 286 299 304 305 311 319 322 323 319 315 312 310 311 309 309 308 306 308 312 315 318 317 316 312 307 303 299 294 290 280 274 270 268 263 261 260 260
233 228 229 237 253 272 288 296 297 307 318 323 322 318 315 312 307 307 309 309 311 311 314 319 322 320 320 322 320 318 312 307 305 303 298 293 284 275 270 269 269 266 260
233 229 233 247 262 277 283 280 286 303 317 324 319 314 312 307 308 308 309 311 310 314 316 321 322 322 319 318 318 319 319 319 313 307 303 302 295 290 288 282 276 269 264
234 229 237 249 258 266 272 274 283 297 315 321 315 309 310 310 310 314 315 318 317 320 321 323 320 319 321 322 320 321 322 326 330 322 320 320 308 300 296 294 292 288 283
235 230 237 246 260 267 274 279 289 301 314 314 310 305 306 310 318 326 324 325 329 331 332 330 327 327 325 325 329 327 318 318 322 323 321 320 314 304 294 289 286 289 291
233 228 233 250 272 271 275 282 302 303 309 312 306 304 316 326 329 322 326 332 334 333 335 332 326 323 333 338 340 337 325 327 330 326 328 317 318 318 316 312 303 302 290
223 215 211 223 294 283 270 284 291 296 308 308 312 317 323 326 324 324 330 333 330 335 331 331 337 339 333 332 333 327 324 334 335 330 326 325 322 318 313 310 306 304 302
178 197 198 290 293 280 274 287 282 300 309 308 311 311 314 321 321 323 327 328 334 338 341 339 340 332 327 332 331 330 332 328 324 323 318 313 311 306 304 304 302 299 295
314 229 233 244 267 286 284 280 289 294 298 300 306 309 324 319 319 323 327 334 342 354 358 354 347 338 339 336 329 330 328 324 318 309 307 307 306 302 297 294 294 289 286
245 206 216 247 266 272 277 281 287 294 292 296 315 325 328 315 324 342 345 342 356 360 355 348 346 346 346 340 328 324 315 312 310 313 316 308 301 298 298 291 289 284 279
264 249 214 243 263 254 269 268 284 284 291 307 333 333 331 350 2 1 358 359 353 353 343 339 339 340 335 329 326 329 323 321 314 310 315 311 305 300 294 290 286 281 277
268 223 230 255 236 261 265 283 295 299 297 330 334 329 344 7 5 358 353 350 349 343 338 334 334 329 324 324 321 318 315 323 316 318 319 313 311 308 306 302 295 287 282
207 226 238 236 259 269 292 280 284 285 318 331 326 352 9 1 351 349 348 342 337 331 330 333 327 323 323 328 326 320 317 320 321 322 320 320 321 321 316 311 301 289 270
222 228 213 249 237 286 278 261 249 299 320 312 347 19 8 343 346 347 337 332 328 327 330 325 324 329 321 328 330 331 328 331 326 325 327 330 332 332 331 331 330 320 276
203 203 221 218 261 268 258 244 270 296 300 2 27 12 348 342 336 334 326 322 332 333 324 325 332 332 330 333 331 341 334 331 331 333 338 340 339 341 346 355 2 8 347
203 203 227 245 245 236 217 213 257 340 33 25 3 3 346 333 330 321 323 339 335 326 330 334 334 329 338 337 342 338 342 339 339 351 353 354 352 354 4 13 15 18 21
185 200 222 216 204 208 191 203 222 229 26 356 26 358 325 320 323 333 344 337 329 334 335 339 340 333 335 337 344 346 349 352 5 3 4 7 12 15 23 27 27 24 21
159 194 183 186 193 184 196 203 213 344 310 21 3 335 315 312 340 342 338 333 337 338 339 347 346 340 340 352 348 357 5 20 21 27 27 28 32 32 31 29 25 30 34
178 160 161 183 181 187 200 211 243 294 313 9 339 314 314 329 344 340 339 339 339 342 344 348 356 352 351 0 358 11 24 30 30 31 33 33 35 36 37 36 35 33 30
Height
3172 3172 3172 3170 3169 3168 3168 3167 3166 3165 3164 3163 3162 3160 3159 3157 3154 3152 3150 3148 3147 3145 3144 3143 3141 3139 3137 3135 3134 3132 3132 3131 3130 3130 3130 3130 3129 3130 3131 3131 3131 3133 3133
3170 3170 3169 3168 3167 3167 3167 3166 3166 3164 3163 3162 3161 3159 3157 3154 3151 3149 3146 3144 3142 3141 3139 3136 3135 3134 3132 3130 3129 3127 3125 3125 3124 3125 3125 3126 3126 3128 3128 3128 3129 3130 3130
3167 3167 3166 3165 3165 3165 3165 3164 3163 3162 3161 3160 3158 3155 3154 3152 3149 3145 3143 3141 3138 3137 3136 3134 3131 3129 3128 3127 3126 3123 3122 3121 3120 3119 3118 3119 3120 3120 3122 3123 3123 3124 3124
3163 3163 3163 3163 3164 3164 3163 3162 3161 3160 3159 3158 3156 3152 3150 3147 3145 3142 3139 3135 3133 3132 3131 3129 3127 3125 3123 3121 3120 3118 3117 3115 3114 3114 3113 3112 3112 3112 3113 3114 3116 3115 3116
3160 3161 3161 3162 3162 3162 3162 3161 3160 3159 3157 3156 3153 3152 3148 3144 3141 3138 3135 3131 3127 3126 3125 3123 3121 3119 3117 3115 3113 3112 3111 3109 3107 3107 3106 3105 3105 3105 3105 3107 3108 3109 3109
3158 3158 3159 3160 3161 3160 3160 3158 3157 3156 3154 3153 3151 3148 3145 3140 3138 3133 3130 3128 3125 3121 3119 3117 3116 3115 3113 3109 3108 3106 3104 3103 3101 3100 3098 3097 3096 3096 3096 3096 3096 3096 3097
3153 3154 3156 3157 3158 3157 3156 3155 3155 3154 3153 3150 3146 3143 3141 3137 3133 3130 3126 3122 3120 3117 3114 3108 3108 3106 3105 3103 3101 3099 3098 3096 3094 3093 3092 3090 3088 3086 3086 3085 3084 3084 3085
3150 3151 3152 3154 3154 3154 3154 3153 3152 3150 3149 3147 3144 3141 3136 3133 3129 3125 3121 3118 3114 3112 3109 3108 3102 3100 3098 3097 3095 3093 3090 3088 3087 3084 3083 3082 3079 3077 3075 3074 3074 3074 3075
3145 3147 3148 3150 3151 3151 3151 3150 3149 3147 3146 3143 3139 3135 3132 3128 3124 3120 3117 3113 3110 3106 3102 3099 3097 3095 3092 3087 3083 3081 3080 3077 3074 3072 3069 3069 3068 3066 3066 3063 3064 3062 3063
3140 3144 3146 3148 3149 3148 3147 3144 3143 3142 3141 3138 3134 3130 3127 3123 3119 3117 3114 3111 3107 3105 3098 3094 3091 3088 3084 3082 3079 3074 3070 3067 3064 3061 3059 3058 3056 3054 3054 3052 3051 3051 3051
3135 3138 3141 3143 3142 3143 3142 3142 3140 3137 3134 3132 3129 3125 3122 3117 3114 3112 3110 3107 3104 3100 3095 3091 3087 3083 3080 3076 3071 3068 3063 3060 3057 3055 3052 3051 3050 3047 3046 3043 3041 3040 3040
3132 3134 3136 3137 3139 3140 3139 3139 3137 3134 3130 3126 3123 3118 3116 3114 3110 3106 3104 3102 3098 3094 3090 3086 3081 3077 3074 3069 3065 3061 3058 3054 3052 3050 3049 3046 3044 3043 3041 3038 3035 3033 3031
3124 3127 3130 3135 3138 3137 3134 3135 3133 3130 3125 3121 3118 3113 3111 3107 3104 3103 3100 3096 3092 3089 3085 3081 3077 3073 3068 3065 3061 3058 3054 3050 3047 3045 3043 3041 3038 3036 3033 3031 3028 3026 3025
3120 3124 3128 3131 3131 3130 3127 3126 3124 3123 3120 3117 3113 3106 3104 3102 3099 3096 3093 3091 3088 3084 3080 3076 3071 3068 3065 3062 3058 3055 3051 3046 3042 3039 3036 3033 3030 3028 3026 3024 3020 3019 3016
3111 3119 3124 3125 3123 3122 3123 3122 3119 3118 3115 3111 3108 3106 3102 3100 3098 3095 3092 3088 3084 3081 3077 3073 3069 3066 3062 3057 3053 3049 3045 3041 3037 3034 3029 3025 3021 3018 3014 3012 3010 3007 3004
3109 3112 3116 3112 3114 3115 3115 3116 3116 3114 3110 3107 3105 3103 3100 3098 3095 3093 3090 3085 3082 3078 3074 3070 3066 3062 3056 3050 3046 3042 3038 3033 3030 3025 3020 3015 3011 3007 3003 3001 2999 2994 2992
3104 3099 3103 3105 3107 3109 3110 3111 3112 3110 3106 3103 3102 3099 3098 3096 3093 3089 3086 3083 3077 3073 3069 3065 3060 3055 3049 3044 3038 3034 3030 3026 3021 3015 3010 3004 3000 2994 2990 2986 2983 2980 2978
3096 3096 3098 3102 3102 3104 3106 3107 3107 3105 3102 3099 3098 3097 3095 3092 3089 3086 3083 3079 3075 3070 3066 3062 3056 3049 3045 3041 3035 3030 3025 3019 3012 3006 3000 2994 2988 2980 2974 2969 2966 2963 2961
3090 3091 3094 3097 3099 3100 3102 3101 3100 3099 3098 3096 3095 3095 3093 3090 3088 3085 3080 3077 3072 3067 3063 3058 3052 3048 3043 3036 3030 3024 3016 3010 3003 2996 2990 2982 2973 2964 2958 2953 2948 2946 2945
3085 3088 3091 3094 3096 3098 3098 3096 3095 3094 3093 3093 3093 3090 3089 3088 3086 3082 3078 3074 3069 3065 3060 3054 3049 3043 3037 3031 3024 3016 3009 3003 2995 2988 2979 2969 2962 2955 2948 2942 2936 2931 2932
3083 3086 3090 3091 3092 3092 3093 3093 3092 3092 3091 3092 3091 3089 3088 3086 3084 3079 3076 3071 3067 3062 3056 3049 3043 3037 3031 3025 3017 3009 3002 2995 2988 2980 2970 2962 2956 2949 2941 2934 2928 2923 2922
3080 3083 3085 3087 3088 3089 3090 3090 3090 3090 3090 3089 3089 3088 3087 3085 3081 3077 3073 3069 3064 3058 3051 3044 3037 3031 3024 3018 3011 3004 2998 2990 2982 2973 2965 2959 2952 2946 2939 2933 2928 2924 2922
3075 3078 3081 3084 3085 3086 3087 3088 3088 3088 3087 3087 3087 3086 3085 3082 3079 3074 3070 3065 3059 3052 3046 3039 3032 3025 3019 3012 3005 3000 2993 2986 2977 2970 2964 2958 2950 2944 2939 2934 2930 2926 2925
3072 3074 3077 3080 3081 3083 3084 3085 3086 3086 3086 3086 3085 3084 3082 3080 3075 3071 3066 3061 3054 3048 3041 3035 3028 3021 3014 3008 3002 2997 2991 2983 2976 2970 2965 2959 2951 2945 2941 2936 2933 2930 2927
3067 3071 3074 3077 3079 3080 3082 3083 3084 3084 3085 3084 3083 3081 3079 3075 3072 3068 3063 3057 3050 3043 3037 3032 3024 3015 3008 3004 3000 2996 2991 2985 2979 2973 2967 2961 2954 2948 2944 2939 2935 2931 2929
3065 3068 3071 3074 3077 3079 3081 3081 3082 3083 3083 3082 3081 3078 3074 3072 3069 3065 3059 3053 3047 3041 3034 3028 3020 3012 3005 3002 2998 2996 2992 2987 2982 2976 2971 2966 2960 2954 2950 2945 2940 2937 2934